Torna al catalogo

CZ-4 DEB

AttivoPO
NORAD 26128·DEBRIS·🇨🇳 China

Lanciato Oct 14, 1999 da Taiyuan Satellite Launch Center

Loading…

Prossimi Passaggi (prossime 24 ore)

TLE

AggiornatoSource: Space-Track

Epoca: Sep 14, 2026, 13:22 UTC

1 26128U 99057Q   26257.55730316  .00005351  00000-0  33996-3 0  9998
2 26128  98.6654 115.6138 0020612  68.0808 315.4844 15.09200432429049

Traccia CZ-4 DEB in tempo reale con AllMySat

Download on the App Store